Weather History for Harlan, KY

Change the Weather History Date:

Friday, February 1, 2013

  Actual Average (KLOZ) Record (KLOZ)
Temperature  
Mean Temperature 24 °F 37 °F  
Max Temperature 35 °F 46 °F 71 °F (1988)
Min Temperature 14 °F 27 °F -11 °F (1971)
Degree Days  
Heating Degree Days 40 28  
Month to date heating degree days 28  
Since 1 July heating degree days 2591  
Cooling Degree Days 0 0  
Month to date cooling degree days 0  
Year to date cooling degree days 0  
Moisture  
Dew Point 12 °F    
Average Humidity 68    
Maximum Humidity 93    
Minimum Humidity 47    
Precipitation  
Precipitation 0.00 in 0.13 in 2.09 in (1981)
Month to date precipitation 0.13  
Year to date precipitation 3.67  
Sea Level Pressure  
Sea Level Pressure 30.26 in    
Wind  
Wind Speed 10 mph (WNW)    
Max Wind Speed 23 mph    
Max Gust Speed 43 mph    
Visibility 9 miles    
Events      
T = Trace of Precipitation, MM = Missing Value Source: NWS Daily Summary

Daily Weather History Graph

Daily Weather History Graph

Search for Another Location

Airport:

Trip Planner

Search our weather history database for the weather conditions in past years. The results will help you decide how hot, cold, wet, or windy it might be!

Date:

Astronomy

Feb. 01, 2013 Rise Set
Actual Time 7:35 AM EST 5:59 PM EST
Civil Twilight 7:08 AM EST 6:26 PM EST
Nautical Twilight 6:37 AM EST 6:57 PM EST
Astronomical Twilight 6:06 AM EST 7:27 PM EST
Moon 11:54 PM EST (2/1) 10:18 AM EST (2/1)
Length of Visible Light 11h 18m
Length of Day
10h 23m
Waning Gibbous, 70% of the Moon is Illuminated
Feb 1
Waning Gibbous
Feb 3
Last Quarter
Feb 10
New
Feb 17
First Quarter
Feb 25
Full

Hourly Weather History & Observations

Time (EST) Temp. Windchill Dew Point Humidity Pressure Visibility Wind Dir Wind Speed Gust Speed Precip Events Conditions
12:15 AM 35.6 °F 27.1 °F 28.4 °F 75% 29.90 in 10.0 mi West 12.7 mph 24.2 mph N/A   Overcast
12:35 AM 35.6 °F 26.2 °F 30.2 °F 81% 29.91 in 4.0 mi West 15.0 mph 25.3 mph N/A   Overcast
1:15 AM 32.0 °F 19.2 °F 30.2 °F 93% 29.93 in 0.5 mi West 23.0 mph 42.6 mph N/A   Overcast
1:35 AM 32.0 °F 20.8 °F 30.2 °F 93% 29.95 in 1.0 mi West 17.3 mph 28.8 mph N/A   Overcast
2:15 AM 26.6 °F 13.4 °F 23.0 °F 86% 30.03 in 0.5 mi West 18.4 mph 27.6 mph N/A   Overcast
2:35 AM 26.6 °F 12.0 °F 21.2 °F 80% 30.05 in 1.2 mi West 23.0 mph 32.2 mph N/A   Overcast
2:55 AM 26.6 °F 15.7 °F 19.4 °F 74% 30.06 in 10.0 mi West 12.7 mph 31.1 mph N/A   Overcast
3:15 AM 24.8 °F 12.4 °F 17.6 °F 74% 30.09 in 10.0 mi WNW 15.0 mph 24.2 mph N/A   Overcast
3:35 AM 23.0 °F 11.1 °F 17.6 °F 80% 30.10 in 7.0 mi West 12.7 mph 21.9 mph N/A   Overcast
3:55 AM 23.0 °F 11.7 °F 14.0 °F 68% 30.11 in 4.0 mi WNW 11.5 mph 25.3 mph N/A   Overcast
4:15 AM 21.2 °F 6.8 °F 14.0 °F 74% 30.11 in 10.0 mi West 17.3 mph 24.2 mph N/A   Overcast
4:35 AM 21.2 °F 6.8 °F 14.0 °F 74% 30.12 in 5.0 mi WNW 17.3 mph 24.2 mph N/A   Overcast
4:55 AM 19.4 °F 5.0 °F 12.2 °F 74% 30.15 in 2.0 mi NW 16.1 mph 26.5 mph N/A   Overcast
5:15 AM 17.6 °F 5.7 °F 10.4 °F 73% 30.18 in 7.0 mi WNW 10.4 mph 20.7 mph N/A   Overcast
5:35 AM 17.6 °F 3.7 °F 8.6 °F 68% 30.19 in 10.0 mi NW 13.8 mph 24.2 mph N/A   Overcast
6:15 AM 14.0 °F -1.4 °F 5.0 °F 67% 30.22 in 10.0 mi WNW 15.0 mph 20.7 mph N/A   Overcast
6:35 AM 14.0 °F -2.0 °F 5.0 °F 67% 30.24 in 10.0 mi WNW 16.1 mph 20.7 mph N/A   Mostly Cloudy
7:15 AM 14.0 °F 3.9 °F 5.0 °F 67% 30.26 in 10.0 mi NW 6.9 mph - N/A   Overcast
7:35 AM 14.0 °F 6.5 °F 5.0 °F 67% 30.27 in 10.0 mi NW 4.6 mph 19.6 mph N/A   Overcast
8:15 AM 14.0 °F 5.1 °F 6.8 °F 73% 30.28 in 10.0 mi NNW 5.8 mph - N/A   Overcast
8:35 AM 14.0 °F 2.9 °F 5.0 °F 67% 30.29 in 10.0 mi WNW 8.1 mph 18.4 mph N/A   Mostly Cloudy
9:15 AM 15.8 °F 3.4 °F 5.0 °F 62% 30.31 in 10.0 mi WNW 10.4 mph - N/A   Overcast
9:35 AM 17.6 °F 5.0 °F 6.8 °F 63% 30.32 in 10.0 mi WNW 11.5 mph - N/A   Overcast
9:55 AM 15.8 °F 5.1 °F 6.8 °F 68% 30.32 in 10.0 mi WNW 8.1 mph - N/A   Overcast
10:15 AM 17.6 °F 10.7 °F 8.6 °F 68% 30.33 in 10.0 mi WSW 4.6 mph - N/A   Overcast
10:35 AM 17.6 °F 5.7 °F 8.6 °F 68% 30.34 in 10.0 mi West 10.4 mph 16.1 mph N/A   Overcast
11:15 AM 19.4 °F 10.4 °F 6.8 °F 58% 30.35 in 10.0 mi WSW 6.9 mph - N/A   Overcast
11:35 AM 21.2 °F 14.9 °F 8.6 °F 58% 30.35 in 10.0 mi WNW 4.6 mph - N/A   Mostly Cloudy
11:55 AM 21.2 °F 11.7 °F 8.6 °F 58% 30.35 in 10.0 mi West 8.1 mph - N/A   Mostly Cloudy
12:15 PM 23.0 °F - 8.6 °F 54% 30.35 in 10.0 mi Calm Calm - N/A   Scattered Clouds
12:35 PM 23.0 °F 13.1 °F 10.4 °F 59% 30.35 in 10.0 mi West 9.2 mph - N/A   Mostly Cloudy
1:15 PM 23.0 °F 15.8 °F 10.4 °F 59% 30.33 in 10.0 mi WNW 5.8 mph - N/A   Scattered Clouds
1:35 PM 23.0 °F 13.1 °F 10.4 °F 59% 30.33 in 10.0 mi WNW 9.2 mph - N/A   Mostly Cloudy
1:55 PM 24.8 °F 15.3 °F 10.4 °F 54% 30.33 in 10.0 mi West 9.2 mph - N/A   Mostly Cloudy
2:15 PM 26.6 °F 22.6 °F 12.2 °F 55% 30.33 in 10.0 mi WNW 3.5 mph - N/A   Mostly Cloudy
2:35 PM 24.8 °F 17.9 °F 10.4 °F 54% 30.32 in 10.0 mi WNW 5.8 mph - N/A   Scattered Clouds
2:55 PM 24.8 °F 15.3 °F 10.4 °F 54% 30.32 in 10.0 mi West 9.2 mph - N/A   Scattered Clouds
3:15 PM 24.8 °F 14.6 °F 10.4 °F 54% 30.32 in 10.0 mi WNW 10.4 mph - N/A   Clear
3:35 PM 26.6 °F 18.2 °F 8.6 °F 47% 30.32 in 10.0 mi WSW 8.1 mph - N/A   Clear
3:55 PM 26.6 °F 20.0 °F 10.4 °F 51% 30.31 in 10.0 mi West 5.8 mph - N/A   Clear
4:15 PM 26.6 °F 21.2 °F 10.4 °F 51% 30.32 in 10.0 mi West 4.6 mph - N/A   Clear
4:35 PM 26.6 °F 22.6 °F 8.6 °F 47% 30.32 in 10.0 mi NNW 3.5 mph - N/A   Clear
4:55 PM 24.8 °F 19.1 °F 8.6 °F 50% 30.32 in 10.0 mi West 4.6 mph - N/A   Clear
5:15 PM 24.8 °F 19.1 °F 8.6 °F 50% 30.32 in 10.0 mi West 4.6 mph - N/A   Clear
5:35 PM 24.8 °F 20.5 °F 8.6 °F 50% 30.31 in 10.0 mi WSW 3.5 mph - N/A   Clear
6:15 PM 23.0 °F 18.4 °F 8.6 °F 54% 30.31 in 10.0 mi West 3.5 mph - N/A   Clear
6:35 PM 21.2 °F - 10.4 °F 63% 30.32 in 10.0 mi Calm Calm - N/A   Clear
6:55 PM 21.2 °F - 10.4 °F 63% 30.33 in 10.0 mi Calm Calm - N/A   Clear
7:15 PM 21.2 °F - 10.4 °F 63% 30.33 in 10.0 mi Calm Calm - N/A   Clear
7:35 PM 21.2 °F - 12.2 °F 68% 30.34 in 10.0 mi Calm Calm - N/A   Clear
7:55 PM 21.2 °F - 10.4 °F 63% 30.34 in 10.0 mi Calm Calm - N/A   Clear
8:15 PM 21.2 °F - 12.2 °F 68% 30.34 in 10.0 mi Calm Calm - N/A   Clear
8:35 PM 19.4 °F - 12.2 °F 74% 30.34 in 10.0 mi Calm Calm - N/A   Clear
8:55 PM 19.4 °F - 12.2 °F 74% 30.34 in 10.0 mi Calm Calm - N/A   Clear
9:15 PM 19.4 °F - 14.0 °F 80% 30.34 in 10.0 mi Calm Calm - N/A   Clear
9:35 PM 19.4 °F - 14.0 °F 80% 30.34 in 10.0 mi Calm Calm - N/A   Clear
9:55 PM 19.4 °F - 12.2 °F 74% 30.33 in 10.0 mi Calm Calm - N/A   Clear
10:15 PM 19.4 °F - 14.0 °F 80% 30.34 in 10.0 mi Calm Calm - N/A   Clear
10:35 PM 17.6 °F - 14.0 °F 86% 30.33 in 10.0 mi Calm Calm - N/A   Clear
10:55 PM 17.6 °F - 14.0 °F 86% 30.33 in 10.0 mi Calm Calm - N/A   Clear
11:15 PM 19.4 °F - 14.0 °F 80% 30.34 in 10.0 mi Calm Calm - N/A   Clear
11:35 PM 17.6 °F - 14.0 °F 86% 30.33 in 10.0 mi Calm Calm - N/A   Clear
11:55 PM 17.6 °F - 14.0 °F 86% 30.31 in 10.0 mi Calm Calm - N/A   Clear